Simultaneous Nadir Overpasses (SNOs) Predictions

Prediction of SNOs between GOES-15 and METOP-C Satellite Orbit:

Table of predicted SNOs for the next 14.0 days since TLE Epoch: 7/25/2025
Index Date Time (GOES-15) GOES-15 Lat,Lon METOP-C Lat,Lon Distance(km) Time Diff (sec)
1 07/26/2025 17:38:26 -0.05, 61.42 -0.69, 58.63 318.08 80
2 07/27/2025 17:15:08 -0.01, 61.42 0.50, 63.61 249.64 80
3 07/29/2025 05:36:38 0.06, 61.36 0.54, 59.06 260.81 80
4 07/30/2025 05:13:18 0.02, 61.37 -0.59, 64.05 306.53 80
5 07/31/2025 17:34:57 -0.08, 61.47 -0.52, 59.48 225.92 80
6 08/01/2025 17:11:37 -0.04, 61.48 0.62, 64.47 341.41 80
7 08/03/2025 05:33:08 0.10, 61.42 0.43, 59.93 169.65 80
8 08/04/2025 05:09:48 0.06, 61.43 -0.71, 64.92 396.98 80
9 08/05/2025 17:31:26 -0.12, 61.55 -0.38, 60.34 136.78 80
10 08/06/2025 17:08:07 -0.08, 61.56 0.76, 65.34 429.73 80
11 08/08/2025 05:29:37 0.14, 61.51 0.28, 60.79 82.25 80
